Time,TemperatureF,DewpointF,PressureIn,WindDirection,WindDirectionDegrees,WindSpeedMPH,WindSpeedGustMPH,Humidity,HourlyPrecipIn,Conditions,Clouds,dailyrainin,SoftwareType,DateUTC
2013-01-14 00:02:00,46.6,45.0,30.00,SSE,153,0.0,0.0,94,0.00,,---,0.00,VWS V14.00,2013-01-14 05:02:00,
2013-01-14 00:03:00,46.6,45.0,30.00,SSE,153,0.0,0.0,94,0.00,,---,0.00,VWS V14.00,2013-01-14 05:03:00,
2013-01-14 00:04:00,46.6,45.0,30.00,SSE,153,0.0,0.0,94,0.00,,---,0.00,VWS V14.00,2013-01-14 05:04:00,
2013-01-14 00:09:00,46.7,45.1,30.00,SSE,153,0.0,0.0,94,0.00,,---,0.00,VWS V14.00,2013-01-14 05:09:00,
2013-01-14 00:14:00,46.7,45.1,30.01,SSE,153,0.0,0.0,94,0.00,,---,0.00,VWS V14.00,2013-01-14 05:14:00,
2013-01-14 00:19:00,46.6,45.0,30.00,SSE,153,0.0,0.0,94,0.00,,---,0.00,VWS V14.00,2013-01-14 05:19:00,
2013-01-14 00:24:00,46.6,45.0,30.00,SSE,153,0.0,0.0,94,0.00,,---,0.00,VWS V14.00,2013-01-14 05:24:00,
2013-01-14 00:29:00,46.6,45.0,30.00,SSE,153,0.0,0.0,94,0.00,,---,0.00,VWS V14.00,2013-01-14 05:29:00,
2013-01-14 00:34:00,46.6,45.0,30.00,SSE,153,0.0,0.0,94,0.00,,---,0.00,VWS V14.00,2013-01-14 05:34:00,
2013-01-14 00:39:00,46.7,45.1,29.99,SSE,153,0.0,0.0,94,0.00,,---,0.01,VWS V14.00,2013-01-14 05:39:00,
2013-01-14 00:44:00,46.7,45.1,30.00,SSE,153,0.0,0.0,94,0.00,,---,0.01,VWS V14.00,2013-01-14 05:44:00,
2013-01-14 00:49:00,46.8,45.2,30.00,SSE,153,0.0,0.0,94,0.00,,---,0.01,VWS V14.00,2013-01-14 05:49:00,
2013-01-14 00:54:00,46.9,45.3,29.99,SSE,153,0.0,0.0,94,0.00,,---,0.01,VWS V14.00,2013-01-14 05:54:00,
2013-01-14 00:59:00,46.9,45.3,30.00,SSE,153,0.0,0.0,94,0.00,,---,0.01,VWS V14.00,2013-01-14 05:59:00,
2013-01-14 01:04:00,46.8,45.2,30.00,SSE,153,0.0,0.0,94,0.00,,---,0.01,VWS V14.00,2013-01-14 06:04:00,
2013-01-14 01:09:00,46.7,45.1,30.00,SSE,153,0.0,0.0,94,0.00,,---,0.01,VWS V14.00,2013-01-14 06:09:00,
2013-01-14 01:14:00,46.7,45.1,30.00,SSE,153,0.0,0.0,94,0.00,,---,0.01,VWS V14.00,2013-01-14 06:14:00,
2013-01-14 01:19:00,46.7,45.1,30.00,SSE,153,0.0,0.0,94,0.00,,---,0.01,VWS V14.00,2013-01-14 06:19:00,
2013-01-14 01:25:00,46.8,45.2,30.00,SSE,153,0.0,0.0,94,0.00,,---,0.01,VWS V14.00,2013-01-14 06:25:00,
2013-01-14 01:30:00,46.8,45.2,30.01,SSE,153,0.0,0.0,94,0.00,,---,0.01,VWS V14.00,2013-01-14 06:30:00,
2013-01-14 01:35:00,46.8,45.2,30.00,SSE,153,0.0,0.0,94,0.00,,---,0.01,VWS V14.00,2013-01-14 06:35:00,
2013-01-14 01:40:00,46.9,45.3,30.00,SSE,153,0.0,0.0,94,0.00,,---,0.01,VWS V14.00,2013-01-14 06:40:00,
2013-01-14 01:45:00,46.9,45.5,30.01,SSE,153,0.0,0.0,95,0.00,,---,0.01,VWS V14.00,2013-01-14 06:45:00,
2013-01-14 01:50:00,47.0,45.7,30.00,SSE,153,0.0,0.0,95,0.00,,---,0.01,VWS V14.00,2013-01-14 06:50:00,
2013-01-14 01:55:00,46.9,45.5,30.01,SSE,153,0.0,0.0,95,0.00,,---,0.01,VWS V14.00,2013-01-14 06:55:00,
2013-01-14 02:00:00,46.9,45.3,30.00,SSE,153,0.0,0.0,94,0.00,,---,0.01,VWS V14.00,2013-01-14 07:00:00,
2013-01-14 02:05:00,46.9,45.3,30.01,SSE,153,0.0,0.0,94,0.00,,---,0.01,VWS V14.00,2013-01-14 07:05:00,
2013-01-14 02:10:00,46.9,45.3,30.01,SSE,153,0.0,0.0,94,0.00,,---,0.01,VWS V14.00,2013-01-14 07:10:00,
2013-01-14 02:15:00,46.9,45.3,30.02,SSE,153,0.0,0.0,94,0.00,,---,0.01,VWS V14.00,2013-01-14 07:15:00,
2013-01-14 02:20:00,46.9,45.3,30.01,SSE,153,0.0,0.0,94,0.00,,---,0.01,VWS V14.00,2013-01-14 07:20:00,
2013-01-14 02:25:00,46.9,45.3,30.01,SSE,153,0.0,0.0,94,0.00,,---,0.01,VWS V14.00,2013-01-14 07:25:00,
2013-01-14 02:30:00,46.9,45.5,30.01,SSE,153,0.0,0.0,95,0.00,,---,0.01,VWS V14.00,2013-01-14 07:30:00,
2013-01-14 02:35:00,47.0,45.7,30.00,SSE,153,0.0,0.0,95,0.00,,---,0.01,VWS V14.00,2013-01-14 07:35:00,
2013-01-14 02:40:00,47.0,45.7,30.01,SSE,153,0.0,0.0,95,0.00,,---,0.01,VWS V14.00,2013-01-14 07:40:00,
2013-01-14 02:45:00,47.1,45.7,30.00,SSE,153,0.0,0.0,95,0.00,,---,0.01,VWS V14.00,2013-01-14 07:45:00,
2013-01-14 02:50:00,47.1,45.7,30.00,SSE,153,0.0,0.0,95,0.00,,---,0.01,VWS V14.00,2013-01-14 07:50:00,
2013-01-14 02:55:00,47.1,45.7,30.01,SSE,153,0.0,0.0,95,0.00,,---,0.01,VWS V14.00,2013-01-14 07:55:00,
2013-01-14 03:00:00,47.0,45.7,29.99,SSE,153,0.0,0.0,95,0.00,,---,0.01,VWS V14.00,2013-01-14 08:00:00,
2013-01-14 03:05:00,47.0,45.7,30.00,SSE,153,0.0,0.0,95,0.00,,---,0.01,VWS V14.00,2013-01-14 08:05:00,
2013-01-14 03:10:00,46.9,45.5,30.00,SSE,153,0.0,0.0,95,0.00,,---,0.01,VWS V14.00,2013-01-14 08:10:00,
2013-01-14 03:15:00,47.0,45.7,30.00,SSE,153,0.0,0.0,95,0.00,,---,0.01,VWS V14.00,2013-01-14 08:15:00,
2013-01-14 03:20:00,46.9,45.5,30.00,SSE,153,0.0,0.0,95,0.00,,---,0.01,VWS V14.00,2013-01-14 08:20:00,
2013-01-14 03:25:00,46.9,45.5,30.00,SSE,153,0.0,0.0,95,0.00,,---,0.01,VWS V14.00,2013-01-14 08:25:00,
2013-01-14 03:30:00,47.0,45.7,29.99,SSE,153,0.0,0.0,95,0.00,,---,0.01,VWS V14.00,2013-01-14 08:30:00,
2013-01-14 03:35:00,47.0,45.7,30.00,SSE,153,0.0,0.0,95,0.00,,---,0.01,VWS V14.00,2013-01-14 08:35:00,
2013-01-14 03:40:00,47.0,45.7,29.99,SSE,153,0.0,0.0,95,0.00,,---,0.01,VWS V14.00,2013-01-14 08:40:00,
2013-01-14 03:45:00,46.9,45.5,30.00,SSE,153,0.0,0.0,95,0.00,,---,0.01,VWS V14.00,2013-01-14 08:45:00,
2013-01-14 03:50:00,46.9,45.5,30.00,SSE,153,0.0,0.0,95,0.00,,---,0.01,VWS V14.00,2013-01-14 08:50:00,
2013-01-14 03:55:00,46.9,45.5,30.00,SSE,153,0.0,0.0,95,0.00,,---,0.01,VWS V14.00,2013-01-14 08:55:00,
2013-01-14 04:00:00,47.0,45.7,30.00,SSE,153,0.0,0.0,95,0.00,,---,0.01,VWS V14.00,2013-01-14 09:00:00,
2013-01-14 04:05:00,46.9,45.5,30.00,SSE,153,0.0,0.0,95,0.00,,---,0.01,VWS V14.00,2013-01-14 09:05:00,
2013-01-14 04:10:00,46.9,45.5,30.00,SSE,153,0.0,0.0,95,0.00,,---,0.01,VWS V14.00,2013-01-14 09:10:00,
2013-01-14 04:15:00,46.9,45.5,30.01,SSE,153,0.0,0.0,95,0.00,,---,0.01,VWS V14.00,2013-01-14 09:15:00,
2013-01-14 04:20:00,47.0,45.7,30.00,SSE,153,0.0,0.0,95,0.00,,---,0.01,VWS V14.00,2013-01-14 09:20:00,
2013-01-14 04:25:00,47.1,45.7,30.00,SSE,153,0.0,0.0,95,0.00,,---,0.01,VWS V14.00,2013-01-14 09:25:00,
2013-01-14 04:30:00,47.2,45.8,30.00,SSE,153,0.0,0.0,95,0.00,,---,0.01,VWS V14.00,2013-01-14 09:30:00,
2013-01-14 04:35:00,47.3,45.9,29.99,SSE,153,0.0,0.0,95,0.00,,---,0.01,VWS V14.00,2013-01-14 09:35:00,
2013-01-14 04:40:00,47.3,45.9,29.99,SSE,153,0.0,0.0,95,0.00,,---,0.01,VWS V14.00,2013-01-14 09:40:00,
2013-01-14 04:45:00,47.4,46.0,29.99,SSE,153,0.0,0.0,95,0.00,,---,0.01,VWS V14.00,2013-01-14 09:45:00,
2013-01-14 04:50:00,47.4,46.0,29.98,SSE,153,0.0,0.0,95,0.00,,---,0.01,VWS V14.00,2013-01-14 09:50:00,
2013-01-14 04:55:00,47.4,46.0,29.97,SSE,153,0.0,0.0,95,0.00,,---,0.01,VWS V14.00,2013-01-14 09:55:00,
2013-01-14 05:00:00,47.5,46.1,29.98,SSE,153,0.0,0.0,95,0.00,,---,0.01,VWS V14.00,2013-01-14 10:00:00,
2013-01-14 05:05:00,47.6,46.2,29.97,SSE,153,0.0,0.0,95,0.00,,---,0.01,VWS V14.00,2013-01-14 10:05:00,
2013-01-14 05:10:00,47.6,46.2,29.97,SSE,153,0.0,0.0,95,0.00,,---,0.01,VWS V14.00,2013-01-14 10:10:00,
2013-01-14 05:15:00,47.6,46.2,29.97,SSE,153,0.0,0.0,95,0.00,,---,0.01,VWS V14.00,2013-01-14 10:15:00,
2013-01-14 05:20:00,47.6,46.2,29.97,SSE,153,0.0,0.0,95,0.00,,---,0.01,VWS V14.00,2013-01-14 10:20:00,
2013-01-14 05:25:00,47.6,46.2,29.97,SSE,153,0.0,4.0,95,0.00,,---,0.01,VWS V14.00,2013-01-14 10:25:00,
2013-01-14 05:30:00,47.7,46.3,29.96,SSE,153,0.0,0.0,95,0.00,,---,0.01,VWS V14.00,2013-01-14 10:30:00,
2013-01-14 05:35:00,47.7,46.3,29.95,SSE,153,4.0,4.0,95,0.00,,---,0.01,VWS V14.00,2013-01-14 10:35:00,
2013-01-14 05:40:00,47.6,46.2,29.91,SE,141,6.0,7.0,95,0.00,,---,0.01,VWS V14.00,2013-01-14 10:40:00,
2013-01-14 05:46:00,47.6,46.2,29.92,South,172,2.0,9.0,95,0.00,,---,0.01,VWS V14.00,2013-01-14 10:46:00,
2013-01-14 05:50:00,47.6,46.2,29.91,SSE,152,6.0,9.0,95,0.00,,---,0.01,VWS V14.00,2013-01-14 10:50:00,
2013-01-14 05:56:00,47.6,46.2,29.92,SSE,168,0.0,9.0,95,0.00,,---,0.01,VWS V14.00,2013-01-14 10:56:00,
2013-01-14 06:01:00,47.7,46.3,29.91,SE,146,4.0,6.0,95,0.00,,---,0.01,VWS V14.00,2013-01-14 11:01:00,
2013-01-14 06:06:00,47.9,46.5,29.91,SW,219,2.0,6.0,95,0.00,,---,0.01,VWS V14.00,2013-01-14 11:06:00,
2013-01-14 06:11:00,48.2,46.8,29.90,ESE,107,2.0,6.0,95,0.00,,---,0.01,VWS V14.00,2013-01-14 11:11:00,
2013-01-14 06:16:00,48.5,47.1,29.98,NNW,333,4.0,18.0,95,0.00,,---,0.01,VWS V14.00,2013-01-14 11:16:00,
2013-01-14 06:21:00,48.6,47.2,29.99,North,349,15.0,18.0,95,0.00,,---,0.01,VWS V14.00,2013-01-14 11:21:00,
2013-01-14 06:26:00,48.7,47.3,29.97,NW,313,2.0,18.0,95,0.00,,---,0.01,VWS V14.00,2013-01-14 11:26:00,
2013-01-14 06:31:00,48.8,47.4,29.98,NNW,344,4.0,7.0,95,0.00,,---,0.01,VWS V14.00,2013-01-14 11:31:00,
2013-01-14 06:36:00,48.9,47.5,29.99,NW,325,5.0,8.0,95,0.00,,---,0.01,VWS V14.00,2013-01-14 11:36:00,
2013-01-14 06:41:00,48.9,47.5,29.99,NNW,342,5.0,8.0,95,0.00,,---,0.01,VWS V14.00,2013-01-14 11:41:00,
2013-01-14 06:46:00,49.0,47.6,29.99,NNW,342,0.0,8.0,95,0.00,,---,0.01,VWS V14.00,2013-01-14 11:46:00,
2013-01-14 06:51:00,48.9,47.5,29.99,NNW,342,0.0,8.0,95,0.00,,---,0.01,VWS V14.00,2013-01-14 11:51:00,
2013-01-14 06:56:00,48.9,47.5,30.00,NNW,342,0.0,8.0,95,0.00,,---,0.01,VWS V14.00,2013-01-14 11:56:00,
2013-01-14 07:01:00,48.9,47.5,30.02,NNW,342,6.0,6.0,95,0.00,,---,0.01,VWS V14.00,2013-01-14 12:01:00,
2013-01-14 07:06:00,48.9,47.5,30.01,NNW,342,0.0,6.0,95,0.00,,---,0.01,VWS V14.00,2013-01-14 12:06:00,
2013-01-14 07:11:00,49.0,47.6,30.00,South,169,0.0,6.0,95,0.00,,---,0.01,VWS V14.00,2013-01-14 12:11:00,
2013-01-14 07:16:00,48.9,47.5,30.02,South,169,0.0,6.0,95,0.00,,---,0.01,VWS V14.00,2013-01-14 12:16:00,
2013-01-14 07:21:00,48.9,47.5,30.01,South,174,6.0,6.0,95,0.00,,---,0.01,VWS V14.00,2013-01-14 12:21:00,
2013-01-14 07:26:00,48.9,47.5,30.02,South,174,1.0,1.0,95,0.00,,---,0.01,VWS V14.00,2013-01-14 12:26:00,
2013-01-14 07:31:00,49.0,47.6,30.01,South,174,0.0,1.0,95,0.00,,---,0.01,VWS V14.00,2013-01-14 12:31:00,
2013-01-14 07:36:00,49.0,47.6,30.03,South,174,0.0,1.0,95,0.00,,---,0.01,VWS V14.00,2013-01-14 12:36:00,
2013-01-14 07:41:00,48.9,47.5,30.02,South,174,0.0,1.0,95,0.00,,---,0.01,VWS V14.00,2013-01-14 12:41:00,
2013-01-14 07:46:00,48.9,47.5,30.01,South,174,0.0,1.0,95,0.00,,---,0.01,VWS V14.00,2013-01-14 12:46:00,
2013-01-14 07:51:00,48.9,47.5,30.02,South,174,0.0,1.0,95,0.00,,---,0.01,VWS V14.00,2013-01-14 12:51:00,
2013-01-14 07:56:00,48.9,47.5,30.02,South,174,0.0,0.0,95,0.00,,---,0.01,VWS V14.00,2013-01-14 12:56:00,
2013-01-14 08:01:00,48.9,47.5,30.03,South,174,0.0,0.0,95,0.00,,---,0.01,VWS V14.00,2013-01-14 13:01:00,
2013-01-14 08:06:00,48.9,47.5,30.03,South,174,0.0,0.0,95,0.00,,---,0.01,VWS V14.00,2013-01-14 13:06:00,
2013-01-14 08:11:00,48.9,47.5,30.03,South,174,0.0,0.0,95,0.00,,---,0.01,VWS V14.00,2013-01-14 13:11:00,
2013-01-14 08:16:00,48.9,47.5,30.01,South,174,0.0,0.0,95,0.00,,---,0.01,VWS V14.00,2013-01-14 13:16:00,
2013-01-14 08:21:00,49.0,47.6,30.02,South,174,0.0,0.0,95,0.00,,---,0.01,VWS V14.00,2013-01-14 13:21:00,
2013-01-14 08:26:00,49.0,47.6,30.02,South,174,0.0,0.0,95,0.00,,---,0.01,VWS V14.00,2013-01-14 13:26:00,
2013-01-14 08:31:00,48.8,47.4,30.03,South,174,0.0,0.0,95,0.00,,---,0.01,VWS V14.00,2013-01-14 13:31:00,
2013-01-14 08:36:00,48.8,47.4,30.03,South,174,0.0,0.0,95,0.00,,---,0.01,VWS V14.00,2013-01-14 13:36:00,
2013-01-14 08:41:00,48.8,47.4,30.04,South,174,0.0,0.0,95,0.00,,---,0.01,VWS V14.00,2013-01-14 13:41:00,
2013-01-14 08:46:00,48.8,47.4,30.03,South,174,0.0,0.0,95,0.00,,---,0.02,VWS V14.00,2013-01-14 13:46:00,
2013-01-14 08:51:00,48.9,47.5,30.04,SW,234,0.0,0.0,95,0.00,,---,0.02,VWS V14.00,2013-01-14 13:51:00,
2013-01-14 08:56:00,49.0,47.6,30.04,SW,234,0.0,0.0,95,0.00,,---,0.02,VWS V14.00,2013-01-14 13:56:00,
2013-01-14 09:01:00,49.0,47.6,30.05,North,5,0.0,0.0,95,0.00,,---,0.02,VWS V14.00,2013-01-14 14:01:00,
2013-01-14 09:06:00,49.1,47.7,30.06,North,5,0.0,0.0,95,0.00,,---,0.02,VWS V14.00,2013-01-14 14:06:00,
2013-01-14 09:11:00,49.1,47.7,30.06,North,5,0.0,0.0,95,0.00,,---,0.02,VWS V14.00,2013-01-14 14:11:00,
2013-01-14 09:16:00,49.3,47.9,30.05,North,5,0.0,0.0,95,0.00,,---,0.02,VWS V14.00,2013-01-14 14:16:00,
2013-01-14 09:21:00,49.4,48.0,30.06,North,5,0.0,0.0,95,0.00,,---,0.02,VWS V14.00,2013-01-14 14:21:00,
2013-01-14 09:26:00,49.6,48.2,30.06,North,5,0.0,0.0,95,0.00,,---,0.02,VWS V14.00,2013-01-14 14:26:00,
2013-01-14 09:31:00,49.9,48.5,30.06,North,5,0.0,0.0,95,0.00,,---,0.02,VWS V14.00,2013-01-14 14:31:00,
2013-01-14 09:36:00,50.1,48.7,30.07,North,5,0.0,0.0,95,0.00,,---,0.02,VWS V14.00,2013-01-14 14:36:00,
2013-01-14 09:41:00,50.3,48.9,30.07,North,5,0.0,0.0,95,0.00,,---,0.02,VWS V14.00,2013-01-14 14:41:00,
2013-01-14 09:46:00,50.6,49.2,30.06,North,5,0.0,0.0,95,0.00,,---,0.02,VWS V14.00,2013-01-14 14:46:00,
2013-01-14 09:52:00,51.0,49.6,30.06,North,5,0.0,0.0,95,0.00,,---,0.02,VWS V14.00,2013-01-14 14:52:00,
2013-01-14 09:57:00,51.4,50.0,30.06,North,5,0.0,0.0,95,0.00,,---,0.02,VWS V14.00,2013-01-14 14:57:00,
2013-01-14 10:02:00,51.7,50.3,30.06,North,5,0.0,0.0,95,0.00,,---,0.02,VWS V14.00,2013-01-14 15:02:00,
2013-01-14 10:07:00,51.8,50.4,30.07,North,5,0.0,0.0,95,0.00,,---,0.02,VWS V14.00,2013-01-14 15:07:00,
2013-01-14 10:12:00,51.9,50.5,30.07,North,5,0.0,0.0,95,0.00,,---,0.02,VWS V14.00,2013-01-14 15:12:00,
2013-01-14 10:17:00,52.3,50.9,30.08,North,5,0.0,0.0,95,0.00,,---,0.02,VWS V14.00,2013-01-14 15:17:00,
2013-01-14 10:22:00,52.6,51.2,30.08,North,5,0.0,0.0,95,0.00,,---,0.02,VWS V14.00,2013-01-14 15:22:00,
2013-01-14 10:27:00,52.7,51.6,30.07,North,5,0.0,0.0,96,0.00,,---,0.02,VWS V14.00,2013-01-14 15:27:00,
2013-01-14 10:32:00,52.8,51.4,30.07,North,5,0.0,0.0,95,0.00,,---,0.02,VWS V14.00,2013-01-14 15:32:00,
2013-01-14 10:37:00,52.8,51.4,30.07,North,5,0.0,0.0,95,0.00,,---,0.02,VWS V14.00,2013-01-14 15:37:00,
2013-01-14 10:42:00,52.9,51.5,30.07,North,5,0.0,0.0,95,0.00,,---,0.02,VWS V14.00,2013-01-14 15:42:00,
2013-01-14 10:47:00,53.0,51.6,30.07,North,5,0.0,0.0,95,0.00,,---,0.02,VWS V14.00,2013-01-14 15:47:00,
2013-01-14 10:52:00,53.2,51.8,30.07,North,5,0.0,0.0,95,0.00,,---,0.02,VWS V14.00,2013-01-14 15:52:00,
2013-01-14 10:57:00,53.5,52.1,30.07,North,5,0.0,0.0,95,0.00,,---,0.02,VWS V14.00,2013-01-14 15:57:00,
2013-01-14 11:02:00,53.5,52.1,30.07,North,5,0.0,0.0,95,0.00,,---,0.02,VWS V14.00,2013-01-14 16:02:00,
2013-01-14 11:07:00,53.6,52.2,30.07,North,5,0.0,0.0,95,0.00,,---,0.02,VWS V14.00,2013-01-14 16:07:00,
2013-01-14 11:12:00,53.8,52.4,30.07,North,5,3.0,4.0,95,0.00,,---,0.02,VWS V14.00,2013-01-14 16:12:00,
2013-01-14 11:17:00,54.0,52.6,30.07,NNW,328,5.0,6.0,95,0.00,,---,0.02,VWS V14.00,2013-01-14 16:17:00,
2013-01-14 11:22:00,54.1,52.7,30.08,NNW,339,5.0,9.0,95,0.00,,---,0.02,VWS V14.00,2013-01-14 16:22:00,
2013-01-14 11:27:00,54.5,51.6,30.08,NNW,348,11.0,12.0,90,0.00,,---,0.02,VWS V14.00,2013-01-14 16:27:00,
2013-01-14 11:32:00,55.0,50.3,30.08,NNW,328,9.0,13.0,84,0.00,,---,0.02,VWS V14.00,2013-01-14 16:32:00,
2013-01-14 11:37:00,55.3,49.6,30.08,NNW,329,8.0,13.0,81,0.00,,---,0.02,VWS V14.00,2013-01-14 16:37:00,
2013-01-14 11:42:00,55.4,48.7,30.08,NNW,340,5.0,13.0,78,0.00,,---,0.02,VWS V14.00,2013-01-14 16:42:00,
2013-01-14 11:47:00,55.5,47.7,30.08,NNW,336,7.0,13.0,75,0.00,,---,0.02,VWS V14.00,2013-01-14 16:47:00,
2013-01-14 11:52:00,55.7,47.2,30.08,NW,324,7.0,13.0,73,0.00,,---,0.02,VWS V14.00,2013-01-14 16:52:00,
2013-01-14 11:57:00,55.9,47.4,30.08,NW,323,8.0,9.0,73,0.00,,---,0.02,VWS V14.00,2013-01-14 16:57:00,
2013-01-14 12:02:00,55.9,46.3,30.08,North,355,9.0,12.0,70,0.00,,---,0.02,VWS V14.00,2013-01-14 17:02:00,
2013-01-14 12:07:00,55.8,46.9,30.08,NNW,346,7.0,12.0,72,0.00,,---,0.02,VWS V14.00,2013-01-14 17:07:00,
2013-01-14 12:12:00,55.6,45.6,30.08,NNW,334,7.0,21.0,69,0.00,,---,0.02,VWS V14.00,2013-01-14 17:12:00,
2013-01-14 12:17:00,55.4,45.8,30.08,North,355,15.0,21.0,70,0.00,,---,0.02,VWS V14.00,2013-01-14 17:17:00,
2013-01-14 12:22:00,55.0,45.0,30.08,NW,319,10.0,21.0,69,0.00,,---,0.02,VWS V14.00,2013-01-14 17:22:00,
2013-01-14 12:27:00,54.8,45.6,30.09,NNW,335,11.0,12.0,71,0.00,,---,0.02,VWS V14.00,2013-01-14 17:27:00,
2013-01-14 12:32:00,54.7,45.1,30.10,NNW,328,13.0,13.0,70,0.00,,---,0.02,VWS V14.00,2013-01-14 17:32:00,
2013-01-14 12:37:00,54.6,45.0,30.09,North,355,7.0,13.0,70,0.00,,---,0.02,VWS V14.00,2013-01-14 17:37:00,
2013-01-14 12:42:00,54.6,44.7,30.09,NW,325,6.0,13.0,69,0.00,,---,0.02,VWS V14.00,2013-01-14 17:42:00,
2013-01-14 12:47:00,54.6,45.0,30.08,NW,323,11.0,13.0,70,0.00,,---,0.02,VWS V14.00,2013-01-14 17:47:00,
2013-01-14 12:52:00,54.6,44.7,30.07,NNW,328,11.0,16.0,69,0.00,,---,0.02,VWS V14.00,2013-01-14 17:52:00,
2013-01-14 12:57:00,54.8,44.5,30.08,NW,324,10.0,12.0,68,0.00,,---,0.02,VWS V14.00,2013-01-14 17:57:00,
2013-01-14 13:02:00,55.0,45.0,30.08,North,349,5.0,14.0,69,0.00,,---,0.02,VWS V14.00,2013-01-14 18:02:00,
2013-01-14 13:07:00,55.4,45.0,30.08,NW,323,13.0,14.0,68,0.00,,---,0.02,VWS V14.00,2013-01-14 18:07:00,
2013-01-14 13:12:00,55.4,45.0,30.09,NW,326,8.0,14.0,68,0.00,,---,0.02,VWS V14.00,2013-01-14 18:12:00,
2013-01-14 13:17:00,55.5,44.3,30.09,NNW,347,13.0,16.0,66,0.00,,---,0.02,VWS V14.00,2013-01-14 18:17:00,
2013-01-14 13:22:00,55.4,43.8,30.09,NNE,15,7.0,16.0,65,0.00,,---,0.02,VWS V14.00,2013-01-14 18:22:00,
2013-01-14 13:27:00,55.3,43.3,30.08,NNW,346,10.0,15.0,64,0.00,,---,0.02,VWS V14.00,2013-01-14 18:27:00,
2013-01-14 13:32:00,55.3,43.8,30.09,North,355,7.0,15.0,65,0.00,,---,0.02,VWS V14.00,2013-01-14 18:32:00,
2013-01-14 13:37:00,55.2,42.8,30.10,NNW,339,12.0,16.0,63,0.00,,---,0.02,VWS V14.00,2013-01-14 18:37:00,
2013-01-14 13:42:00,54.9,42.6,30.09,NNW,337,12.0,16.0,63,0.00,,---,0.02,VWS V14.00,2013-01-14 18:42:00,
2013-01-14 13:47:00,54.8,42.9,30.09,NNW,338,7.0,16.0,64,0.00,,---,0.02,VWS V14.00,2013-01-14 18:47:00,
2013-01-14 13:52:00,54.8,42.9,30.09,NNW,348,8.0,16.0,64,0.00,,---,0.02,VWS V14.00,2013-01-14 18:52:00,
2013-01-14 13:57:00,54.8,42.9,30.10,NW,326,8.0,8.0,64,0.00,,---,0.02,VWS V14.00,2013-01-14 18:57:00,
2013-01-14 14:02:00,54.7,41.5,30.10,North,360,9.0,16.0,61,0.00,,---,0.02,VWS V14.00,2013-01-14 19:02:00,
2013-01-14 14:07:00,54.5,40.9,30.09,NW,325,9.0,17.0,60,0.00,,---,0.02,VWS V14.00,2013-01-14 19:07:00,
2013-01-14 14:12:00,54.3,41.2,30.09,NNE,13,2.0,17.0,61,0.00,,---,0.02,VWS V14.00,2013-01-14 19:12:00,
2013-01-14 14:18:00,54.2,40.6,30.09,NNW,334,11.0,17.0,60,0.00,,---,0.02,VWS V14.00,2013-01-14 19:18:00,
2013-01-14 14:23:00,54.2,40.6,30.11,NNW,329,6.0,17.0,60,0.00,,---,0.02,VWS V14.00,2013-01-14 19:23:00,
2013-01-14 14:28:00,54.2,40.6,30.12,NW,321,7.0,9.0,60,0.00,,---,0.02,VWS V14.00,2013-01-14 19:28:00,
2013-01-14 14:33:00,54.2,40.2,30.11,NNW,335,10.0,10.0,59,0.00,,---,0.02,VWS V14.00,2013-01-14 19:33:00,
2013-01-14 14:38:00,54.2,40.6,30.12,NW,324,6.0,11.0,60,0.00,,---,0.02,VWS V14.00,2013-01-14 19:38:00,
2013-01-14 14:43:00,54.1,40.5,30.13,NNW,346,7.0,11.0,60,0.00,,---,0.02,VWS V14.00,2013-01-14 19:43:00,
2013-01-14 14:48:00,54.2,40.6,30.12,NW,325,9.0,11.0,60,0.00,,---,0.02,VWS V14.00,2013-01-14 19:48:00,
2013-01-14 14:53:00,54.2,41.1,30.12,NW,318,6.0,11.0,61,0.00,,---,0.02,VWS V14.00,2013-01-14 19:53:00,
2013-01-14 14:58:00,54.3,40.7,30.13,NNW,343,6.0,9.0,60,0.00,,---,0.02,VWS V14.00,2013-01-14 19:58:00,
2013-01-14 15:03:00,54.3,39.8,30.12,North,5,4.0,9.0,58,0.00,,---,0.02,VWS V14.00,2013-01-14 20:03:00,
2013-01-14 15:08:00,54.2,40.6,30.13,NW,323,8.0,9.0,60,0.00,,---,0.02,VWS V14.00,2013-01-14 20:08:00,
2013-01-14 15:13:00,54.1,39.7,30.13,NNW,329,7.0,9.0,58,0.00,,---,0.02,VWS V14.00,2013-01-14 20:13:00,
2013-01-14 15:18:00,54.0,39.1,30.13,NW,326,10.0,11.0,57,0.00,,---,0.02,VWS V14.00,2013-01-14 20:18:00,
2013-01-14 15:23:00,53.9,39.5,30.14,NNW,327,7.0,12.0,58,0.00,,---,0.02,VWS V14.00,2013-01-14 20:23:00,
2013-01-14 15:28:00,53.8,38.5,30.14,NNW,338,8.0,13.0,56,0.00,,---,0.02,VWS V14.00,2013-01-14 20:28:00,
2013-01-14 15:33:00,53.8,38.9,30.13,North,355,5.0,13.0,57,0.00,,---,0.02,VWS V14.00,2013-01-14 20:33:00,
2013-01-14 15:38:00,53.7,38.8,30.13,NNW,340,4.0,13.0,57,0.00,,---,0.02,VWS V14.00,2013-01-14 20:38:00,
2013-01-14 15:43:00,53.6,37.8,30.14,NNW,330,8.0,13.0,55,0.00,,---,0.02,VWS V14.00,2013-01-14 20:43:00,
2013-01-14 15:48:00,53.5,38.2,30.14,NNW,342,9.0,13.0,56,0.00,,---,0.02,VWS V14.00,2013-01-14 20:48:00,
2013-01-14 15:53:00,53.3,37.6,30.15,NNW,348,7.0,13.0,55,0.00,,---,0.02,VWS V14.00,2013-01-14 20:53:00,
2013-01-14 15:58:00,53.2,37.9,30.15,NNW,340,6.0,6.0,56,0.00,,---,0.02,VWS V14.00,2013-01-14 20:58:00,
2013-01-14 16:03:00,53.0,36.8,30.14,North,355,5.0,8.0,54,0.00,,---,0.02,VWS V14.00,2013-01-14 21:03:00,
2013-01-14 16:08:00,52.8,37.1,30.15,NNW,342,8.0,8.0,55,0.00,,---,0.02,VWS V14.00,2013-01-14 21:08:00,
2013-01-14 16:13:00,52.7,37.0,30.15,NNW,334,7.0,12.0,55,0.00,,---,0.02,VWS V14.00,2013-01-14 21:13:00,
2013-01-14 16:18:00,52.5,37.3,30.15,NNW,340,6.0,12.0,56,0.00,,---,0.02,VWS V14.00,2013-01-14 21:18:00,
2013-01-14 16:23:00,52.3,37.1,30.15,NNW,348,6.0,12.0,56,0.00,,---,0.02,VWS V14.00,2013-01-14 21:23:00,
2013-01-14 16:28:00,52.2,37.4,30.15,North,349,7.0,8.0,57,0.00,,---,0.02,VWS V14.00,2013-01-14 21:28:00,
2013-01-14 16:33:00,52.1,36.9,30.15,NW,325,8.0,10.0,56,0.00,,---,0.02,VWS V14.00,2013-01-14 21:33:00,
2013-01-14 16:38:00,52.0,36.3,30.15,NNW,340,13.0,13.0,55,0.00,,---,0.02,VWS V14.00,2013-01-14 21:38:00,
2013-01-14 16:43:00,51.9,36.7,30.16,NNW,336,7.0,13.0,56,0.00,,---,0.02,VWS V14.00,2013-01-14 21:43:00,
2013-01-14 16:48:00,51.7,36.5,30.15,NNW,328,2.0,13.0,56,0.00,,---,0.02,VWS V14.00,2013-01-14 21:48:00,
2013-01-14 16:53:00,51.5,36.3,30.15,North,5,6.0,13.0,56,0.00,,---,0.02,VWS V14.00,2013-01-14 21:53:00,
2013-01-14 16:58:00,51.4,36.7,30.15,NNE,19,3.0,3.0,57,0.00,,---,0.02,VWS V14.00,2013-01-14 21:58:00,
2013-01-14 17:03:00,51.2,35.6,30.15,NNW,337,7.0,8.0,55,0.00,,---,0.02,VWS V14.00,2013-01-14 22:03:00,
2013-01-14 17:08:00,51.1,35.5,30.15,NNW,338,5.0,8.0,55,0.00,,---,0.02,VWS V14.00,2013-01-14 22:08:00,
2013-01-14 17:13:00,51.0,35.4,30.15,NNW,339,6.0,8.0,55,0.00,,---,0.02,VWS V14.00,2013-01-14 22:13:00,
2013-01-14 17:18:00,50.9,35.3,30.15,North,349,4.0,8.0,55,0.00,,---,0.02,VWS V14.00,2013-01-14 22:18:00,
2013-01-14 17:23:00,50.8,34.8,30.15,NW,325,6.0,8.0,54,0.00,,---,0.02,VWS V14.00,2013-01-14 22:23:00,
2013-01-14 17:28:00,50.7,34.7,30.16,NNE,12,3.0,3.0,54,0.00,,---,0.02,VWS V14.00,2013-01-14 22:28:00,
2013-01-14 17:33:00,50.6,34.1,30.17,North,360,5.0,9.0,53,0.00,,---,0.02,VWS V14.00,2013-01-14 22:33:00,
2013-01-14 17:38:00,50.6,34.1,30.17,NNW,335,7.0,9.0,53,0.00,,---,0.02,VWS V14.00,2013-01-14 22:38:00,
2013-01-14 17:43:00,50.4,33.5,30.17,North,5,5.0,9.0,52,0.00,,---,0.02,VWS V14.00,2013-01-14 22:43:00,
2013-01-14 17:48:00,50.3,32.9,30.17,NNW,346,4.0,9.0,51,0.00,,---,0.02,VWS V14.00,2013-01-14 22:48:00,
2013-01-14 17:53:00,50.2,33.3,30.17,NNW,346,4.0,9.0,52,0.00,,---,0.02,VWS V14.00,2013-01-14 22:53:00,
2013-01-14 17:58:00,50.1,32.7,30.18,North,355,6.0,7.0,51,0.00,,---,0.02,VWS V14.00,2013-01-14 22:58:00,
2013-01-14 18:03:00,50.0,32.1,30.18,North,355,4.0,7.0,50,0.00,,---,0.02,VWS V14.00,2013-01-14 23:03:00,
2013-01-14 18:08:00,50.0,32.1,30.18,ESE,111,2.0,8.0,50,0.00,,---,0.02,VWS V14.00,2013-01-14 23:08:00,
2013-01-14 18:14:00,49.9,32.0,30.18,NNW,339,4.0,8.0,50,0.00,,---,0.02,VWS V14.00,2013-01-14 23:14:00,
2013-01-14 18:19:00,49.8,32.9,30.18,NNW,339,2.0,8.0,52,0.00,,---,0.02,VWS V14.00,2013-01-14 23:19:00,
2013-01-14 18:24:00,49.8,34.3,30.17,ENE,65,0.0,8.0,55,0.00,,---,0.02,VWS V14.00,2013-01-14 23:24:00,
2013-01-14 18:29:00,49.7,36.4,30.18,NE,43,0.0,5.0,60,0.00,,---,0.02,VWS V14.00,2013-01-14 23:29:00,
2013-01-14 18:34:00,49.6,36.7,30.18,ENE,59,2.0,5.0,61,0.00,,---,0.02,VWS V14.00,2013-01-14 23:34:00,
2013-01-14 18:39:00,49.4,37.3,30.19,East,88,0.0,5.0,63,0.00,,---,0.02,VWS V14.00,2013-01-14 23:39:00,
2013-01-14 18:44:00,49.2,37.2,30.18,ENE,72,3.0,5.0,63,0.00,,---,0.02,VWS V14.00,2013-01-14 23:44:00,
2013-01-14 18:49:00,49.0,37.8,30.19,East,80,0.0,6.0,65,0.00,,---,0.02,VWS V14.00,2013-01-14 23:49:00,
2013-01-14 18:54:00,48.8,37.2,30.20,North,5,1.0,6.0,64,0.00,,---,0.02,VWS V14.00,2013-01-14 23:54:00,
2013-01-14 18:59:00,48.6,37.4,30.20,ENE,59,0.0,6.0,65,0.00,,---,0.02,VWS V14.00,2013-01-14 23:59:00,
2013-01-14 19:04:00,48.5,37.3,30.20,North,355,0.0,6.0,65,0.00,,---,0.02,VWS V14.00,2013-01-15 00:04:00,
2013-01-14 19:09:00,48.4,37.2,30.20,ENE,76,4.0,6.0,65,0.00,,---,0.02,VWS V14.00,2013-01-15 00:09:00,
2013-01-14 19:14:00,48.3,37.5,30.22,North,355,4.0,6.0,66,0.00,,---,0.02,VWS V14.00,2013-01-15 00:14:00,
2013-01-14 19:19:00,48.2,37.4,30.23,NNW,346,5.0,7.0,66,0.00,,---,0.02,VWS V14.00,2013-01-15 00:19:00,
2013-01-14 19:24:00,48.0,36.4,30.24,North,355,6.0,7.0,64,0.00,,---,0.02,VWS V14.00,2013-01-15 00:24:00,
2013-01-14 19:29:00,47.9,36.7,30.24,North,355,0.0,2.0,65,0.00,,---,0.02,VWS V14.00,2013-01-15 00:29:00,
2013-01-14 19:34:00,47.7,36.1,30.24,NNW,338,5.0,5.0,64,0.00,,---,0.02,VWS V14.00,2013-01-15 00:34:00,
2013-01-14 19:39:00,47.7,36.5,30.25,North,5,0.0,5.0,65,0.00,,---,0.02,VWS V14.00,2013-01-15 00:39:00,
2013-01-14 19:44:00,47.6,35.2,30.25,NNW,332,2.0,5.0,62,0.00,,---,0.02,VWS V14.00,2013-01-15 00:44:00,
2013-01-14 19:49:00,47.6,33.1,30.25,North,5,2.0,5.0,57,0.00,,---,0.02,VWS V14.00,2013-01-15 00:49:00,
2013-01-14 19:54:00,47.5,33.0,30.25,NNW,340,5.0,5.0,57,0.00,,---,0.02,VWS V14.00,2013-01-15 00:54:00,
2013-01-14 19:59:00,47.4,31.6,30.25,NNW,339,2.0,7.0,54,0.00,,---,0.02,VWS V14.00,2013-01-15 00:59:00,
2013-01-14 20:04:00,47.4,31.1,30.26,NNW,337,2.0,7.0,53,0.00,,---,0.02,VWS V14.00,2013-01-15 01:04:00,
2013-01-14 20:09:00,47.3,32.0,30.25,NNW,338,2.0,7.0,55,0.00,,---,0.02,VWS V14.00,2013-01-15 01:09:00,
2013-01-14 20:14:00,47.2,32.3,30.25,NNW,338,0.0,7.0,56,0.00,,---,0.02,VWS V14.00,2013-01-15 01:14:00,
2013-01-14 20:19:00,47.2,34.0,30.25,East,84,4.0,7.0,60,0.00,,---,0.02,VWS V14.00,2013-01-15 01:19:00,
2013-01-14 20:24:00,47.1,34.4,30.25,NE,56,1.0,7.0,61,0.00,,---,0.02,VWS V14.00,2013-01-15 01:24:00,
2013-01-14 20:29:00,46.9,34.2,30.25,North,360,1.0,6.0,61,0.00,,---,0.02,VWS V14.00,2013-01-15 01:29:00,
2013-01-14 20:34:00,46.6,34.3,30.26,North,5,3.0,6.0,62,0.00,,---,0.02,VWS V14.00,2013-01-15 01:34:00,
2013-01-14 20:39:00,46.3,33.6,30.25,ENE,78,4.0,8.0,61,0.00,,---,0.02,VWS V14.00,2013-01-15 01:39:00,
2013-01-14 20:44:00,46.1,33.4,30.25,NE,35,0.0,8.0,61,0.00,,---,0.02,VWS V14.00,2013-01-15 01:44:00,
2013-01-14 20:49:00,45.8,33.1,30.25,North,360,2.0,8.0,61,0.00,,---,0.02,VWS V14.00,2013-01-15 01:49:00,
2013-01-14 20:54:00,45.6,32.9,30.26,North,355,6.0,8.0,61,0.00,,---,0.02,VWS V14.00,2013-01-15 01:54:00,
2013-01-14 20:59:00,45.3,32.2,30.26,NNE,12,5.0,9.0,60,0.00,,---,0.02,VWS V14.00,2013-01-15 01:59:00,
2013-01-14 21:04:00,45.1,32.1,30.26,NNE,27,2.0,9.0,60,0.00,,---,0.02,VWS V14.00,2013-01-15 02:04:00,
2013-01-14 21:09:00,44.9,31.9,30.24,NE,46,1.0,9.0,60,0.00,,---,0.02,VWS V14.00,2013-01-15 02:09:00,
2013-01-14 21:14:00,44.7,31.7,30.25,NNW,344,1.0,9.0,60,0.00,,---,0.02,VWS V14.00,2013-01-15 02:14:00,
2013-01-14 21:19:00,44.5,32.7,30.26,NE,36,3.0,9.0,63,0.00,,---,0.02,VWS V14.00,2013-01-15 02:19:00,
2013-01-14 21:24:00,44.1,33.1,30.28,North,360,5.0,9.0,65,0.00,,---,0.02,VWS V14.00,2013-01-15 02:24:00,
2013-01-14 21:29:00,43.6,34.5,30.28,North,355,6.0,8.0,70,0.00,,---,0.02,VWS V14.00,2013-01-15 02:29:00,
2013-01-14 21:34:00,42.8,34.8,30.28,NNE,15,3.0,8.0,73,0.00,,---,0.03,VWS V14.00,2013-01-15 02:34:00,
2013-01-14 21:39:00,42.0,35.0,30.29,North,350,7.0,8.0,76,0.12,,---,0.04,VWS V14.00,2013-01-15 02:39:00,
2013-01-14 21:44:00,41.4,35.1,30.28,North,5,1.0,8.0,78,0.08,,---,0.04,VWS V14.00,2013-01-15 02:44:00,
2013-01-14 21:49:00,40.9,35.2,30.27,NNE,17,0.0,8.0,80,0.05,,---,0.05,VWS V14.00,2013-01-15 02:49:00,
2013-01-14 21:54:00,40.6,35.2,30.27,ENE,64,0.0,8.0,81,0.05,,---,0.05,VWS V14.00,2013-01-15 02:54:00,
2013-01-14 21:59:00,40.4,35.3,30.28,NNE,24,2.0,3.0,82,0.05,,---,0.06,VWS V14.00,2013-01-15 02:59:00,
2013-01-14 22:04:00,40.2,35.5,30.29,NNE,24,1.0,3.0,83,0.05,,---,0.06,VWS V14.00,2013-01-15 03:04:00,
2013-01-14 22:09:00,40.1,35.4,30.28,East,80,0.0,3.0,83,0.05,,---,0.06,VWS V14.00,2013-01-15 03:09:00,
2013-01-14 22:14:00,40.0,35.6,30.28,East,80,1.0,3.0,84,0.04,,---,0.06,VWS V14.00,2013-01-15 03:14:00,
2013-01-14 22:19:00,40.0,35.9,30.28,ENE,61,3.0,5.0,85,0.00,,---,0.06,VWS V14.00,2013-01-15 03:19:00,
2013-01-14 22:24:00,39.8,35.7,30.29,ENE,60,0.0,5.0,85,0.00,,---,0.07,VWS V14.00,2013-01-15 03:24:00,
2013-01-14 22:29:00,39.7,35.6,30.28,ENE,78,3.0,3.0,85,0.00,,---,0.07,VWS V14.00,2013-01-15 03:29:00,
2013-01-14 22:34:00,39.6,35.2,30.28,ENE,76,1.0,6.0,84,0.00,,---,0.07,VWS V14.00,2013-01-15 03:34:00,
2013-01-14 22:40:00,39.3,34.9,30.28,ENE,59,0.0,6.0,84,0.04,,---,0.08,VWS V14.00,2013-01-15 03:40:00,
2013-01-14 22:45:00,39.1,34.7,30.29,East,84,3.0,6.0,84,0.04,,---,0.08,VWS V14.00,2013-01-15 03:45:00,
2013-01-14 22:50:00,38.9,34.5,30.29,ENE,61,4.0,6.0,84,0.04,,---,0.08,VWS V14.00,2013-01-15 03:50:00,
2013-01-14 22:55:00,38.7,34.3,30.29,NE,50,1.0,6.0,84,0.04,,---,0.08,VWS V14.00,2013-01-15 03:55:00,
2013-01-14 23:00:00,38.6,34.2,30.28,NE,54,0.0,3.0,84,0.00,,---,0.08,VWS V14.00,2013-01-15 04:00:00,
2013-01-14 23:05:00,38.5,34.4,30.28,ENE,65,0.0,5.0,85,0.00,,---,0.08,VWS V14.00,2013-01-15 04:05:00,
2013-01-14 23:10:00,38.4,34.3,30.28,ENE,65,0.0,5.0,85,0.00,,---,0.08,VWS V14.00,2013-01-15 04:10:00,
2013-01-14 23:15:00,38.3,34.5,30.29,ENE,65,0.0,5.0,86,0.00,,---,0.08,VWS V14.00,2013-01-15 04:15:00,
2013-01-14 23:20:00,38.2,34.4,30.30,ENE,65,1.0,5.0,86,0.00,,---,0.08,VWS V14.00,2013-01-15 04:20:00,
2013-01-14 23:25:00,38.1,34.3,30.30,ENE,65,3.0,5.0,86,0.00,,---,0.08,VWS V14.00,2013-01-15 04:25:00,
2013-01-14 23:30:00,38.1,34.3,30.30,ENE,65,2.0,3.0,86,0.00,,---,0.08,VWS V14.00,2013-01-15 04:30:00,
2013-01-14 23:35:00,38.2,34.7,30.29,ENE,65,0.0,3.0,87,0.00,,---,0.08,VWS V14.00,2013-01-15 04:35:00,
2013-01-14 23:40:00,38.2,34.4,30.30,NE,47,2.0,3.0,86,0.00,,---,0.08,VWS V14.00,2013-01-15 04:40:00,
2013-01-14 23:45:00,38.2,34.4,30.30,NE,47,0.0,3.0,86,0.00,,---,0.08,VWS V14.00,2013-01-15 04:45:00,
2013-01-14 23:50:00,38.2,34.1,30.29,NE,47,0.0,3.0,85,0.00,,---,0.08,VWS V14.00,2013-01-15 04:50:00,
2013-01-14 23:55:00,38.2,34.1,30.28,NE,47,0.0,3.0,85,0.00,,---,0.08,VWS V14.00,2013-01-15 04:55:00,